Kayseri, Turkey

10:22 AM +03 on July 26, 2017 (GMT +0300)
Erkilet Air Base

Weather History for LTAU - July, 2013

Change the Weather History Date:

Saturday, July 20, 2013

  Actual Average Record
Temperature  
Mean Temperature 69 °F -  
Max Temperature 85 °F 85 °F 96 °F (2002)
Min Temperature 53 °F 54 °F 47 °F (2015)
Cooling Degree Days 4    
Growing Degree Days 19 (Base 50)    
Moisture  
Dew Point 45 °F    
Average Humidity 46    
Maximum Humidity 82    
Minimum Humidity 13    
Precipitation  
Precipitation 0.00 in - - ()
Sea Level Pressure  
Sea Level Pressure 29.92 in    
Wind  
Wind Speed 4 mph ()    
Max Wind Speed 13 mph    
Max Gust Speed -    
Visibility 8.1 miles    
Events      
Averages and records for this station are not official NWS values.
T = Trace of Precipitation, MM = Missing Value Source: Averaged Metar Reports

Daily Weather History Graph

Daily Weather History Graph

Search for Another Location

Airport or City:

Trip Planner

Search our weather history database for the weather conditions in past years. The results will help you decide how hot, cold, wet, or windy it might be!

Date:

Astronomy

Jul. 20, 2013 Rise Set
Actual Time 5:29 AM EEST 7:59 PM EEST
Civil Twilight 4:58 AM EEST 8:30 PM EEST
Nautical Twilight 4:20 AM EEST 9:08 PM EEST
Astronomical Twilight 3:38 AM EEST 9:50 PM EEST
Moon 5:42 PM EEST (7/20) 2:47 AM EEST (7/20)
Length of Visible Light 15h 31m
Length of Day
14h 30m
Waxing Gibbous, 92% of the Moon is Illuminated
Jul 20
Waxing Gibbous
Jul 22
Full
Jul 29
Last Quarter
Aug 7
New
Aug 14
First Quarter

Hourly Weather History & Observations

Time (EEST) Temp. Dew Point Humidity Pressure Visibility Wind Dir Wind Speed Gust Speed Precip Events Conditions
12:20 AM 60.8 °F 50.0 °F 68% 30.01 in - ENE 4.6 mph - N/A   Clear
12:50 AM 62.6 °F 50.0 °F 63% 29.98 in - Variable 1.2 mph - N/A   Clear
1:20 AM 62.6 °F 50.0 °F 63% 29.98 in - Variable 2.3 mph - N/A   Clear
1:50 AM 60.8 °F 50.0 °F 68% 29.98 in - Variable 1.2 mph - N/A   Clear
2:20 AM 59.0 °F 50.0 °F 72% 29.98 in - ENE 3.5 mph - N/A   Clear
2:50 AM 59.0 °F 50.0 °F 72% 29.98 in - NE 5.8 mph - N/A   Clear
3:00 AM 59 °F 49 °F 62%  in 12 mi NE 5.8 mph - -  
3:20 AM 59.0 °F 50.0 °F 72% 29.98 in - NNE 6.9 mph - N/A   Clear
3:50 AM 55.4 °F 48.2 °F 77% 29.98 in - NE 6.9 mph - N/A   Clear
4:20 AM 55.4 °F 50.0 °F 82% 29.98 in - Variable 1.2 mph - N/A   Clear
4:50 AM 53.6 °F 48.2 °F 82% 29.98 in - ENE 5.8 mph - N/A   Clear
5:20 AM 53.6 °F 48.2 °F 82% 29.98 in - Calm Calm - N/A   Clear
5:50 AM 55.4 °F 50.0 °F 82% 29.98 in - Calm Calm - N/A   Clear
6:20 AM 53.6 °F 48.2 °F 82% 29.98 in - NE 3.5 mph - N/A   Clear
6:50 AM 59.0 °F 50.0 °F 72% 29.98 in - NE 1.2 mph - N/A   Clear
7:20 AM 60.8 °F 50.0 °F 68% 29.98 in - NE 4.6 mph - N/A   Clear
7:50 AM 62.6 °F 48.2 °F 59% 29.98 in - ENE 5.8 mph - N/A   Clear
8:20 AM 64.4 °F 48.2 °F 56% 29.98 in - NE 10.4 mph - N/A   Clear
8:50 AM 66.2 °F 46.4 °F 49% 29.98 in - ENE 11.5 mph - N/A   Clear
9:20 AM 66.2 °F 46.4 °F 49% 29.98 in - ENE 10.4 mph - N/A   Clear
9:50 AM 68.0 °F 46.4 °F 46% 29.95 in - ENE 8.1 mph - N/A   Clear
10:20 AM 69.8 °F 46.4 °F 43% 29.95 in - ENE 6.9 mph - N/A   Clear
10:50 AM 71.6 °F 44.6 °F 38% 29.95 in - East 5.8 mph - N/A   Clear
11:20 AM 73.4 °F 44.6 °F 36% 29.92 in - Variable 3.5 mph - N/A   Clear
11:50 AM 73.4 °F 42.8 °F 33% 29.92 in - Variable 2.3 mph - N/A   Clear
12:20 PM 75.2 °F 41.0 °F 29% 29.92 in - Variable 2.3 mph - N/A   Clear
12:50 PM 77.0 °F 41.0 °F 28% 29.92 in - Variable 2.3 mph - N/A   Clear
1:20 PM 78.8 °F 39.2 °F 24% 29.89 in 6.2 mi Variable 2.3 mph - N/A   Partly Cloudy
1:50 PM 78.8 °F 39.2 °F 24% 29.89 in 6.2 mi East 3.5 mph - N/A   Partly Cloudy
2:20 PM 82.4 °F 39.2 °F 21% 29.89 in 6.2 mi Variable 5.8 mph - N/A   Partly Cloudy
2:50 PM 82.4 °F 39.2 °F 21% 29.86 in 6.2 mi Variable 3.5 mph - N/A   Partly Cloudy
3:00 PM 82 °F 39 °F 13%  in 12 mi NW 3.5 mph - -   Scattered Clouds
3:20 PM 82.4 °F 39.2 °F 21% 29.86 in 6.2 mi Variable 2.3 mph - N/A   Partly Cloudy
3:50 PM 82.4 °F 39.2 °F 21% 29.86 in 6.2 mi Variable 3.5 mph - N/A   Partly Cloudy
4:20 PM 84.2 °F 39.2 °F 20% 29.86 in - Variable 3.5 mph - N/A   Clear
4:50 PM 84.2 °F 39.2 °F 20% 29.86 in - SSW 2.3 mph - N/A   Clear
5:20 PM 84.2 °F 37.4 °F 19% 29.83 in - Variable 2.3 mph - N/A   Clear
5:50 PM 84.2 °F 41.0 °F 22% 29.83 in - SSW 4.6 mph - N/A   Clear
6:20 PM 82.4 °F 41.0 °F 23% 29.83 in - WSW 3.5 mph - N/A   Clear
6:50 PM 82.4 °F 41.0 °F 23% 29.83 in - North 3.5 mph - N/A   Clear
7:20 PM 80.6 °F 44.6 °F 28% 29.83 in - NW 10.4 mph - N/A   Clear
7:50 PM 77.0 °F 44.6 °F 32% 29.86 in - NNW 12.7 mph - N/A   Clear
8:20 PM 77.0 °F 44.6 °F 32% 29.86 in - North 11.5 mph - N/A   Clear
8:50 PM 75.2 °F 44.6 °F 34% 29.86 in - North 12.7 mph - N/A   Clear
9:00 PM 75 °F 44 °F 22%  in 12 mi North 12.7 mph - -  
9:20 PM 73.4 °F 44.6 °F 36% 29.86 in - North 10.4 mph - N/A   Clear
9:50 PM 73.4 °F 44.6 °F 36% 29.89 in - ENE 5.8 mph - N/A   Clear
10:20 PM 69.8 °F 46.4 °F 43% 29.89 in - East 2.3 mph - N/A   Clear
10:50 PM 66.2 °F 48.2 °F 52% 29.89 in - NNE 6.9 mph - N/A   Clear
11:20 PM 66.2 °F 48.2 °F 52% 29.89 in - NNE 6.9 mph - N/A   Clear
11:50 PM 64.4 °F 48.2 °F 56% 29.92 in - Variable 2.3 mph - N/A   Clear